[ hide orbit diagram ]
For accurate long-term ephemerides, please instead use our Horizons system.This orbit viewer was implemented using two-body methods, and hence should not be used for determining accurate long-term trajectories (over several years or decades) or planetary encounter circumstances.
Orbital Elements at Epoch 2459200.5 (2020-Dec-17.0) TDB
Reference: JPL 12 (heliocentric ecliptic J2000)
Element | Value | Uncertainty (1-sigma) | Units |
e | .1054354073569558 | 6.4753e-08 | |
a | 2.203912070399032 | 1.07e-08 | au |
q | 1.971541703477598 | 1.4271e-07 | au |
i | 7.686256694371981 | 6.196e-06 | deg |
node | 335.1680566062161 | 5.0716e-05 | deg |
peri | 78.96758869165309 | 5.7774e-05 | deg |
M | 218.0171620869439 | 2.8051e-05 | deg |
tp | 2459671.827927585474 (2022-Apr-02.32792759) | 9.414e-05 | TDB |
period | 1195.060307462469 3.27 | 8.7029e-06 2.383e-08 | d yr |
n | .3012400275969386 | 2.1938e-09 | deg/d |
Q | 2.436282437320466 | 1.1828e-08 | au |
|
| | Orbit Determination Parameters
Additional Information
|
[ show covariance matrix ]
Physical Parameter Table
Parameter |
Symbol |
Value |
Units |
Sigma |
Reference |
Notes |
absolute magnitude |
H |
17.15 |
|
n/a |
E2021B55 |
|
|
233168 (2005 VJ4) Discovered 2005-Nov-06 by Lowe, A. at Mayhill |
Reference: 20100228/Numbers.arc | Last Updated: 2010-03-03 |
|
|